Location: Schommer Observatory
(40.5200°N, 74.4500°W)
Time: 20:32:27
(UTC-04:00)

Tiangong 1 - Pass Details

Date: 09 October 2017
Orbit: 292 x 319 km, 42.8° (Epoch: 22 October)

Event Time Altitude Azimuth Distance (km) Brightness Sun altitude
Rises 20:44:06 0° 284° (WNW) 2,030 6.1 -26.8°
Reaches altitude 10° 20:46:06 10° 288° (WNW) 1,195 4.5 -27.1°
Enters shadow 20:46:10 11° 288° (WNW) 1,169 4.5 -27.2°
